Regional Weather Roundup
Issued by NWS

Home | Current Version | Previous Version | Graphics & Text | Print | Product List | Glossary On
Versions: 1 2 3 4 5 6 7 8 9 10 11 12 13 14 15 16 17 18 19 20 21 22 23 24 25 26 27 28 29 30 31 32 33 34 35 36 37 38 39 40 41 42 43 44 45 46 47 48 49 50
000
ASUS43 KMPX 220201
RWRMN
WEATHER ROUNDUP FOR MINNESOTA
NATIONAL WEATHER SERVICE TWIN CITIES/CHANHASSEN MN
900 PM CDT MON JUL 21 2014


NOTE: "FAIR" INDICATES FEW OR NO CLOUDS BELOW 12,000 FEET WITH NO
SIGNIFICANT WEATHER AND/OR OBSTRUCTIONS TO VISIBILITY. N/A MEANS
CURRENT SKY AND/OR WEATHER CONDITIONS ARE NOT AVAILABLE.

MNZ060>063-068>070-220300-
   Twin Cities Metro

CITY           SKY/WX    TMP DP  RH WIND       PRES   REMARKS
TWIN CITIES    MOCLDY    85  74  69 SE13      29.83F HX  92
ST PAUL        CLOUDY    83  74  74 SE13      29.82F
CRYSTAL        MOCLDY    86  74  67 S12G24    29.80F HX  94
LAKEVILLE      MOCLDY    81  73  78 SE7       29.84F
EDEN PRAIRIE   MOCLDY    84  75  74 S12       29.81F HX  92
SOUTH ST PAUL  MOCLDY    84  73  68 SE7       29.83F HX  90
LAKE ELMO      MOCLDY    81  73  78 SE8       29.85F
$$
MNZ001>005-007-008-013>017-022>024-027-028-220300-
   Northwest Minnesota

CITY           SKY/WX    TMP DP  RH WIND       PRES   REMARKS
BEMIDJI        MOCLDY    82  75  78 SE10      29.73R
HALLOCK        TSTM      70  64  83 N10G31    29.77R
ROSEAU         CLOUDY    72  64  78 N22G30    29.74F
THIEF RVR FALL CLOUDY    73  72  94 NE14G22   29.63F THUNDER
CROOKSTON      TSTM      70  68  94 N32G51    29.63F
FOSSTON        CLOUDY    82  73  74 S13G20    29.68F
DETROIT LAKES  CLOUDY    82  73  74 S13       29.71F
MOORHEAD       CLOUDY    84  81  89 S8G20     29.69R HX  98
PARK RAPIDS    CLOUDY    82  75  79 SE14      29.72F
$$
MNZ006-009>011-018-025>026-220300-
   North Central Minnesota

CITY           SKY/WX    TMP DP  RH WIND       PRES   REMARKS
BAUDETTE       MOCLDY    77  63  61 N18G26    29.76F
FLAG ISLAND    CLOUDY    70  64  83 N21       29.78F
INTL FALLS     MOCLDY    80  73  79 CALM      29.76F
WASKISH        MOCLDY    81  73  78 CALM      29.74R
BIG FORK       PTCLDY   N/A N/A N/A SE2       29.77F
LONGVILLE      MOCLDY    81  75  83 SE6       29.75F
GRAND RAPIDS   PTCLDY    81  73  78 SE8       29.78F
CRANE LAKE     CLEAR     75  72  88 CALM      29.80F
ORR            CLEAR     79  70  73 SE3       29.77F
COOK           PTCLDY    81  72  74 SE3       29.80F
$$
MNZ012-019>021-037-220300-
   Northeast Minnesota

CITY           SKY/WX    TMP DP  RH WIND       PRES   REMARKS
DULUTH         MOCLDY    81  73  76 S10       29.83F
ELY            PTCLDY    81  70  69 SE6       29.84F
HIBBING        PTCLDY    82  74  76 S6        29.80F
EVELETH        MOCLDY    81  72  74 SE5       29.83F
DULUTH HARBOR  MOCLDY    66  64  94 N9        29.81F
TWO HARBORS    PTCLDY    75  68  78 CALM      29.83F
SILVER BAY     PTCLDY    75  72  88 CALM      29.84F
GRAND MARAIS     N/A     56  53  90 NE3       29.85S
G MARAIS ARPRT CLEAR     72  66  83 CALM      29.92F
$$
MNZ029>031-032-039>041-046>048-054>057-064-220300-
   West Central Minnesota

CITY           SKY/WX    TMP DP  RH WIND       PRES   REMARKS
FERGUS FALLS   CLOUDY    82  72  69 S17G25    29.69S
WHEATON        MOCLDY    79  73  83 S13G20    29.71R
MORRIS         MOCLDY    81  73  78 S14       29.71F
ALEXANDRIA     CLOUDY    81  73  76 S16G23    29.76F
ELBOW LAKE     FAIR      80  74  82 S20G26    29.71F
WADENA         CLOUDY    81  73  78 S12       29.74R
GLENWOOD       MOCLDY    81  73  78 S13G22    29.77F
APPLETON       MOCLDY    82  73  74 SE10      29.72F
BENSON         MOCLDY    81  73  78 S10G18    29.74F
MADISON        CLEAR     82  75  78 S10       29.73F
WILLMAR        FAIR      82  72  69 SE10      29.79S
$$
MNZ033>034-036-042>043-049>051-058-059-220300-
   Central Minnesota

CITY           SKY/WX    TMP DP  RH WIND       PRES   REMARKS
ST CLOUD       CLOUDY    85  74  69 S13G23    29.78S HX  92
SAUK CENTRE    FAIR      80  73  79 S16G22    29.77F
PAYNESVILLE    RAIN      78  72  81 SE12G17   29.79S
AITKIN         CLOUDY    84  75  74 SE8       29.77F HX  92
PINE RIVER     CLOUDY    82  73  74 S9        29.79S
BRAINERD       CLOUDY    82  74  76 SE9       29.76F
STAPLES        CLOUDY    82  73  74 S9G16     29.73F
LONG PRAIRIE   FAIR      79  72  78 S14G21    29.77F
LITTLE FALLS   CLOUDY    82  72  69 S12G20    29.77S
LITCHFIELD     MOCLDY    82  75  78 SE7       29.78F
BUFFALO        MOCLDY    83  73  72 SE10G16   29.80F
MAPLE LAKE     MOCLDY    83  76  79 S8        29.80S HX  91
$$
MNZ037-044-045-052-053-220300-
   East Central Minnesota

CITY           SKY/WX    TMP DP  RH WIND       PRES   REMARKS
PRINCETON      CLOUDY    84  75  74 S12       29.79S HX  92
CAMBRIDGE      CLOUDY    84  72  65 SE12G17   29.78F
RUSH CITY      CLOUDY    82  73  74 SE8       29.81S
MOOSE LAKE     CLOUDY    81  73  78 S3        29.80S
HINCKLEY       FAIR      82  73  74 SE10G21   29.80F
CLOQUET        MOCLDY    81  72  74 SE5       29.83F
MCGREGOR       CLOUDY    81  73  78 SE9       29.79F
$$
MNZ071>073-080-081-089-090-097-098-220300-
   Southwest Minnesota

CITY           SKY/WX    TMP DP  RH WIND       PRES   REMARKS
MONTEVIDEO     PTCLDY    81  75  83 S7G16     29.75F
GRANITE FALLS  PTCLDY    81  74  79 SE9       29.77F
CANBY          CLEAR     82  75  80 SE7       29.75F
MARSHALL       CLEAR     82  73  74 S13       29.75F
REDWOOD FALLS  PTCLDY    82  75  79 SE12      29.77F
OLIVIA         PTCLDY    79  72  78 SE12      29.77F
PIPESTONE      CLEAR     82  75  78 S9        29.80F
WINDOM         MOCLDY    82  73  74 SE8       29.82S
WORTHINGTON    PTCLDY    81  77  89 S8        29.84R
TRACY          CLEAR     82  76  82 S9        29.79F
SLAYTON        PTCLDY    80  76  88 CALM      29.82S FOG
$$
MNZ065>067-074>077-082>085-091>093-220300-
   South Central Minnesota

CITY           SKY/WX    TMP DP  RH WIND       PRES   REMARKS
MANKATO        MOCLDY    82  73  74 S12       29.83F
NEW ULM        MOCLDY    82  75  78 SE10      29.80F
ST JAMES       MOCLDY    82  75  78 SE8       29.83R
FAIRMONT       CLOUDY    82  73  74 SE13      29.84S
GLENCOE        MOCLDY    83  73  71 SE6       29.81F
FARIBAULT      MOCLDY    86  72  62 SE7       29.86F HX  92
OWATONNA       PTCLDY    82  75  78 S9G16     29.87F
WASECA         MOCLDY    81  72  74 SE8       29.87F
ALBERT LEA     PTCLDY    82  75  78 S8        29.89R
$$
MNZ078>079-086>088-094>096-220300-
   Southeast Minnesota

CITY           SKY/WX    TMP DP  RH WIND       PRES   REMARKS
ROCHESTER      MOCLDY    80  72  76 S10       29.92F
RED WING       MOCLDY    84  72  65 S7        29.86F
STANTON        MOCLDY    83  73  69 SE14      29.83F
DODGE CENTER   PTCLDY    81  73  78 S10       29.90F
WINONA         MOCLDY    81  70  69 SE9       29.91F
AUSTIN         PTCLDY    81  73  78 S7        29.90S
PRESTON        MOCLDY    79  74  87 S9        29.94S
$$
ABBREVIATIONS USED IN REMARKS
   TC - TEMPERATURES IN CELSIUS
  WCI - WIND CHILL INDEX
   HX - HEAT INDEX
  VSB - VISIBILITY
$$


USA.gov is the U.S. government's official web portal to all federal, state and local government web resources and services.